Wind_Speed
13 13 9 7 5 4 11 6 3 7 7 2 3 6 5 6 8 6 5 14 12 23 25 32 30 27 24 22 20 19 16 14 11 10 9 8 8 9 9 8 8 7 6 6 5 5 6 5 5
14 11 7 3 7 9 9 6 10 3 2 6 9 11 8 9 5 4 6 17 14 23 25 29 32 29 26 24 21 20 17 14 12 11 10 10 9 9 9 9 9 9 9 9 9 8 8 7 6
14 8 6 5 8 10 3 10 6 2 2 3 5 5 1 2 1 3 1 21 17 23 24 27 31 31 27 24 22 20 18 16 13 13 12 12 12 11 12 12 12 12 12 12 12 12 11 10 10
12 7 5 9 12 9 9 8 3 5 5 3 3 6 4 3 1 1 6 20 18 22 23 25 30 32 29 26 24 23 20 18 15 14 14 14 13 13 14 14 14 15 16 15 15 15 15 13 13
11 5 10 12 14 10 8 10 6 8 3 4 2 4 3 4 2 2 5 17 17 19 23 22 29 32 32 29 27 24 21 19 17 15 14 14 14 15 16 16 16 17 17 17 19 18 18 16 15
8 5 10 13 15 8 10 11 10 11 6 2 5 4 1 4 6 2 6 15 15 17 22 20 27 32 34 32 29 26 23 21 19 17 15 14 14 16 16 14 14 15 15 16 17 18 19 16 16
13 9 14 15 12 11 13 8 12 15 11 6 4 7 3 2 10 4 5 12 17 17 20 21 21 31 35 33 29 26 24 22 20 18 16 15 14 16 16 14 14 14 13 15 17 17 16 17 15
9 9 18 13 14 12 2 9 4 7 7 2 2 6 6 12 9 5 7 10 17 20 20 22 21 24 26 24 29 27 24 22 20 18 17 16 15 16 16 16 15 13 13 13 14 16 17 18 16
12 11 14 19 14 11 5 8 1 2 10 10 7 11 12 13 9 11 10 12 16 22 22 22 21 22 24 23 22 27 24 21 19 18 18 17 15 15 14 15 17 18 15 13 14 14 14 16 18
14 15 23 21 13 15 8 9 8 9 14 18 15 17 8 13 14 16 16 15 16 22 23 24 23 24 22 22 20 19 20 18 17 17 15 14 15 14 14 15 16 19 19 16 14 13 13 14 15
19 24 23 23 21 19 19 20 19 16 18 21 21 19 17 19 19 19 19 18 18 20 25 26 25 25 24 21 19 18 19 17 16 16 15 14 14 13 13 13 13 13 12 13 12 12 13 15 15
29 25 23 26 25 20 19 23 23 22 20 23 22 21 23 22 18 19 21 22 21 19 22 27 28 26 24 21 21 19 18 16 14 13 14 14 13 13 13 13 13 13 14 13 12 12 10 12 15
30 25 25 22 25 23 23 26 29 27 22 24 21 21 20 19 21 27 27 24 24 22 20 27 27 28 25 24 20 19 18 16 14 13 12 13 14 13 13 13 14 14 14 14 13 13 12 12 13
26 28 29 28 27 25 25 26 26 26 22 26 22 22 21 20 23 24 25 25 23 21 18 24 28 28 27 26 22 20 17 15 13 12 12 13 14 13 15 14 14 15 16 15 13 12 12 13 13
25 27 27 22 25 27 25 27 28 25 21 25 22 18 20 20 25 21 23 23 23 20 17 25 27 29 28 26 24 19 15 15 13 11 11 13 13 15 16 15 15 16 16 16 14 12 13 13 13
20 24 25 26 22 21 16 30 24 17 19 19 16 18 20 22 22 25 23 24 24 20 18 23 26 30 29 26 23 19 16 14 13 11 11 13 14 16 16 15 16 16 16 15 16 14 13 13 14
25 26 32 26 24 24 25 35 25 23 17 15 16 19 20 22 22 25 21 20 19 18 17 21 25 28 28 26 23 18 15 14 12 10 11 13 14 16 17 16 17 13 15 16 15 14 13 13 10
28 25 26 28 21 17 27 33 23 21 20 19 19 20 21 20 22 23 19 16 16 12 15 18 23 25 23 21 17 14 13 13 11 10 11 12 13 15 16 16 12 13 13 14 14 12 12 11 12
26 26 31 26 25 24 26 30 27 23 16 21 23 21 21 22 22 19 11 9 6 9 15 19 22 23 24 21 18 15 14 12 10 10 11 12 13 14 16 13 14 12 15 14 13 12 13 12 11
29 28 30 24 19 22 23 29 27 22 23 22 25 22 23 21 19 13 6 5 8 11 15 19 22 24 21 17 14 11 10 8 8 7 9 10 12 13 14 13 11 12 14 13 14 14 12 11 13
31 31 24 26 19 18 22 28 28 26 28 26 23 20 20 20 18 12 6 7 10 15 18 22 24 24 19 15 12 9 6 6 8 7 7 6 8 10 10 10 11 12 14 12 14 13 12 12 11
32 24 24 24 20 23 21 24 27 25 27 22 23 22 23 18 15 7 8 10 13 16 20 24 24 22 17 14 11 9 6 6 3 5 5 6 7 7 7 9 10 11 12 13 11 10 11 11 11
30 18 22 23 21 23 27 19 21 19 23 25 25 21 17 13 9 9 10 12 15 19 23 24 22 19 16 13 10 9 5 4 4 5 5 7 6 5 6 8 10 11 11 10 8 8 10 9 8
22 18 21 18 16 20 21 21 21 23 26 24 21 17 14 7 7 10 13 17 20 23 23 22 20 17 15 13 10 5 4 3 4 5 7 5 5 6 8 8 8 9 7 6 7 8 9 7 6
23 22 10 13 13 15 16 15 23 21 19 22 16 11 10 8 11 14 16 16 23 24 23 20 19 16 15 12 9 6 4 4 4 6 4 3 5 6 8 7 7 6 6 6 7 9 8 7 6
30 27 14 18 14 13 19 11 14 11 18 22 19 10 10 10 12 15 17 18 23 23 22 19 18 16 14 12 9 6 5 3 3 2 3 2 4 6 7 7 6 5 5 7 8 8 8 7 5
28 27 25 8 4 8 9 14 13 18 15 13 12 16 12 10 13 16 18 19 23 22 20 19 16 15 14 12 9 6 5 2 0 1 2 2 6 8 6 6 6 6 5 6 7 7 8 7 6
28 24 22 13 15 12 8 12 7 3 6 10 12 13 11 13 15 17 17 18 21 21 19 17 15 15 14 12 9 7 4 2 3 4 4 4 7 8 7 6 5 5 6 4 4 6 7 6 8
18 23 21 17 12 13 6 6 7 13 7 11 12 14 15 16 17 18 17 21 21 21 20 17 15 15 14 11 8 6 4 3 3 3 5 6 9 10 7 6 4 4 4 3 3 4 5 5 7
24 21 26 14 20 10 7 2 4 4 3 8 6 11 16 17 18 18 18 20 21 20 19 17 16 15 13 10 8 6 4 3 3 4 6 8 9 9 9 7 5 4 3 3 4 5 5 7 7
Wind_Direction
159 156 175 208 225 237 241 193 2 166 185 143 260 236 257 312 308 338 127 170 163 170 176 187 191 192 193 194 194 194 196 198 201 207 216 220 217 220 228 236 242 257 258 256 258 255 249 251 256
160 166 202 222 248 221 195 186 195 180 351 282 248 244 244 263 271 281 194 177 167 174 178 185 195 197 197 199 201 202 203 206 212 218 225 232 240 243 240 242 244 258 264 269 263 257 256 253 252
170 200 246 231 238 248 241 181 134 178 257 244 219 261 251 250 206 302 120 166 167 180 183 188 199 200 202 203 207 209 210 215 220 225 230 238 243 245 244 247 247 253 263 263 266 260 258 258 261
179 200 230 247 240 237 264 170 150 241 169 236 294 241 189 334 350 264 168 173 174 185 188 195 204 201 205 208 210 213 214 219 223 228 234 240 244 251 255 253 250 252 254 258 258 258 257 259 255
214 246 249 238 250 253 231 264 281 257 221 242 238 256 270 86 340 302 196 187 187 190 192 198 207 203 206 210 213 216 218 222 227 233 238 240 246 250 253 256 260 261 265 262 260 254 253 251 253
221 266 238 240 244 230 250 250 251 244 232 186 213 278 291 68 23 339 210 208 210 199 199 200 211 207 208 213 216 218 219 222 228 234 239 247 251 254 254 258 264 269 273 273 272 271 262 249 254
239 229 249 260 272 264 257 256 241 239 212 200 347 266 294 76 11 336 251 221 215 212 206 205 207 210 212 217 219 222 224 226 230 234 236 241 248 252 256 254 259 265 271 274 271 269 263 258 256
242 254 259 247 257 270 247 235 273 239 234 88 277 261 275 15 345 318 286 252 226 217 213 211 208 207 208 214 221 224 229 230 233 239 242 245 249 254 254 258 271 265 273 275 269 265 262 260 256
233 239 247 250 249 246 180 236 166 324 273 274 260 273 296 309 307 299 295 269 243 228 221 215 213 210 207 208 217 222 225 231 236 244 249 253 254 257 254 260 260 268 281 274 271 268 263 260 257
216 230 244 249 263 270 239 245 280 278 274 276 272 258 264 267 282 287 285 275 256 241 228 219 214 211 209 206 206 213 216 222 231 238 244 249 251 255 255 261 264 275 284 282 274 265 262 258 249
227 241 249 247 256 260 281 272 273 264 271 272 283 305 295 287 280 278 272 272 268 255 232 223 214 207 206 208 202 207 213 219 227 233 239 247 251 254 261 269 271 278 277 278 273 269 256 247 244
246 244 244 264 263 260 259 273 279 267 270 276 286 288 290 289 284 279 277 271 266 263 245 222 216 208 202 204 205 208 209 215 223 232 236 239 245 251 259 264 268 267 265 266 264 263 259 255 253
243 251 252 250 264 267 270 269 270 276 282 280 284 284 278 277 278 279 276 270 269 263 243 221 212 208 201 195 204 206 208 216 224 233 236 235 245 251 255 259 258 258 257 254 253 259 260 260 251
247 246 250 257 256 260 260 265 270 271 278 277 275 281 281 285 283 284 277 269 265 259 241 219 210 207 197 190 195 199 202 214 222 229 234 234 239 248 253 255 257 254 255 251 248 248 258 258 255
258 254 257 247 252 252 261 265 261 266 264 268 276 280 279 286 293 287 278 270 268 267 239 215 205 204 197 188 186 193 204 212 222 224 229 234 237 246 251 255 257 255 254 248 243 244 247 252 248
249 243 249 232 232 244 238 260 260 269 266 270 270 280 286 287 288 283 277 267 269 261 233 203 203 201 193 184 181 188 201 212 221 220 235 241 244 247 251 248 249 250 247 241 238 233 238 246 245
231 237 236 245 242 238 233 256 252 256 255 260 272 279 285 293 292 281 282 274 268 254 221 199 201 195 187 180 177 179 191 208 221 222 240 248 246 246 246 244 251 242 237 235 231 236 240 241 241
229 232 243 258 240 224 241 249 254 258 257 273 277 277 287 293 288 285 287 285 269 227 197 198 193 188 179 168 167 180 192 210 222 230 245 249 252 249 242 240 240 240 234 234 233 232 238 242 232
246 243 246 245 244 242 236 253 260 258 267 270 276 285 285 288 291 287 296 285 218 188 183 185 182 173 166 165 172 183 200 212 224 237 247 255 257 251 242 230 242 233 229 226 235 232 235 229 220
236 242 247 255 247 242 253 265 274 269 261 271 275 278 282 284 289 287 277 234 177 169 168 168 167 165 164 169 176 190 201 211 229 243 249 253 251 243 232 226 221 218 221 227 230 228 227 224 207
227 232 239 249 252 249 259 267 267 265 258 255 267 265 269 272 278 274 218 190 167 161 159 159 161 162 162 163 164 165 174 212 227 226 239 233 238 240 232 220 218 215 220 224 228 224 221 215 204
231 222 241 250 252 253 245 267 266 270 268 262 265 268 266 268 262 242 186 170 166 154 155 156 157 157 159 161 170 178 213 239 224 238 229 236 235 236 232 217 211 208 212 225 220 221 218 207 194
233 224 230 241 251 266 256 260 271 268 267 266 265 255 253 250 253 192 178 161 152 149 149 150 151 154 156 160 166 175 216 198 209 220 233 244 240 225 207 204 197 211 219 215 209 194 207 203 203
220 217 224 234 243 249 251 253 266 263 264 267 260 255 225 191 187 160 146 148 144 144 144 148 149 149 154 159 162 174 179 201 227 237 257 276 235 197 192 194 203 213 203 191 186 188 204 211 205
188 193 198 220 224 253 242 243 252 261 256 253 254 242 150 168 158 150 151 147 148 147 148 149 151 151 159 164 166 168 172 181 226 253 280 275 211 176 181 181 189 188 183 171 176 189 202 219 222
192 189 207 215 229 244 206 240 243 252 255 248 248 228 152 166 154 154 151 148 149 151 152 152 154 157 165 167 167 166 160 200 250 247 315 260 169 177 158 174 176 183 176 169 182 191 200 212 207
192 213 213 244 268 259 176 239 263 258 249 246 231 207 180 158 156 153 147 152 151 153 154 153 157 160 165 168 167 161 166 206 351 155 122 163 157 151 161 164 146 136 149 155 171 188 196 199 162
196 195 203 211 225 218 228 251 245 303 210 214 187 187 169 161 157 152 152 154 153 153 152 152 159 161 164 165 166 161 164 159 157 143 143 145 146 161 161 161 139 133 145 151 171 176 183 172 150
188 198 209 213 232 204 237 229 202 249 214 197 199 178 162 165 158 156 156 156 153 153 152 153 163 161 164 164 162 161 149 133 167 159 154 149 157 164 164 162 142 130 139 159 165 164 147 148 164
198 201 198 197 195 237 237 205 299 228 133 206 118 150 156 156 155 158 157 158 154 157 154 161 167 165 165 162 163 159 143 145 169 143 138 157 164 165 166 163 139 134 154 163 150 147 149 145 132
Height
799 801 804 800 803 799 795 785 765 770 770 759 758 762 761 756 767 780 759 761 764 767 771 772 776 780 783 786 789 790 793 795 796 799 800 801 801 802 803 804 805 805 806 807 807 807 808 807 807
801 803 801 787 800 797 781 769 775 763 760 756 756 758 762 764 747 751 756 760 763 766 769 772 774 778 781 784 787 789 792 794 796 798 799 801 801 802 802 802 803 805 805 805 806 807 806 806 806
802 801 788 786 783 786 771 765 760 761 757 758 757 753 754 755 751 751 755 758 762 765 767 770 771 776 781 784 787 790 792 794 795 797 798 800 801 801 802 803 803 803 804 804 804 805 805 805 805
800 797 786 794 784 769 767 757 757 759 756 754 753 760 750 751 753 755 757 758 761 763 766 768 769 774 778 781 784 787 790 792 794 795 796 797 799 799 800 801 801 802 802 802 803 803 803 803 803
796 782 789 788 778 766 760 754 755 760 756 753 753 757 753 749 755 757 759 760 760 763 765 767 768 771 776 779 781 785 788 790 792 794 795 796 796 797 798 798 799 799 799 800 800 800 800 801 802
789 779 791 785 770 763 759 752 752 756 750 753 755 755 750 751 753 756 758 760 762 762 765 767 766 769 772 776 779 782 785 788 790 792 793 794 795 795 795 796 797 797 797 797 797 797 797 798 800
787 783 783 773 773 772 761 747 753 752 752 753 750 760 747 745 754 755 757 758 760 762 764 765 767 767 771 774 778 782 784 787 788 790 791 792 793 794 793 793 794 794 794 794 795 794 795 796 797
776 778 782 771 776 773 753 752 746 749 750 750 751 757 754 745 754 754 754 755 757 758 760 763 765 767 770 774 775 779 783 786 787 789 790 790 791 791 791 791 790 791 791 791 792 792 793 792 793
773 786 782 770 768 764 753 756 752 750 753 747 746 749 748 750 752 751 750 751 752 754 757 759 763 766 767 770 774 776 780 783 785 787 788 789 789 788 788 788 788 787 787 787 788 788 788 788 789
776 774 769 754 751 755 748 755 752 759 757 753 746 741 745 749 747 747 744 743 746 750 753 755 758 761 765 767 770 775 778 780 782 784 785 785 785 785 785 785 784 783 783 782 783 783 784 785 785
764 764 753 749 747 747 751 752 744 752 758 750 747 742 742 743 742 740 738 736 737 739 744 749 753 756 760 764 767 770 774 776 779 780 781 782 782 782 782 781 781 780 780 780 780 780 780 780 781
766 749 751 749 742 749 754 746 748 745 747 740 741 740 738 736 735 731 728 728 730 731 733 741 747 751 754 759 763 767 769 772 775 776 777 778 779 779 779 778 777 778 778 778 778 777 777 778 778
753 752 748 746 748 748 747 748 744 739 736 736 738 735 733 730 727 725 724 723 724 724 727 733 741 745 748 752 758 762 766 768 771 772 773 775 775 775 775 775 775 775 775 775 775 774 774 774 775
741 742 744 745 742 741 746 740 737 733 733 732 733 729 724 723 720 718 717 717 718 718 721 728 733 740 742 743 751 758 761 764 767 768 769 771 771 772 772 772 772 772 772 772 771 772 772 771 771
740 748 740 743 741 739 737 739 738 726 727 727 724 723 719 717 714 713 712 713 713 714 716 720 727 733 735 738 744 752 757 761 763 763 765 767 767 769 769 768 768 769 769 769 769 769 769 770 769
749 745 750 735 736 738 745 734 720 714 717 717 718 716 713 711 707 706 705 705 706 709 710 714 720 725 730 733 738 745 752 757 759 759 761 763 764 764 765 765 764 765 765 766 766 766 765 765 765
740 741 737 739 724 731 737 724 714 708 712 717 716 714 709 702 699 698 699 699 700 703 706 711 716 721 726 729 733 741 748 753 756 755 758 759 759 760 760 760 760 761 762 763 763 762 763 761 764
737 735 736 731 719 728 732 717 713 705 708 712 708 706 700 696 693 691 692 694 696 699 703 708 715 720 726 730 736 742 746 750 752 752 754 755 755 755 756 756 757 757 759 760 759 759 760 761 762
722 719 721 715 715 720 723 717 707 701 703 709 702 697 694 690 683 685 690 694 695 697 701 706 713 720 723 728 733 739 743 746 748 749 750 751 751 751 752 751 752 754 755 755 756 757 758 759 760
723 725 719 711 710 718 722 718 704 697 698 700 695 689 687 682 679 679 688 692 693 697 700 706 712 718 723 728 732 736 740 742 744 745 747 748 747 747 748 748 749 750 751 753 754 755 756 756 757
713 720 724 724 714 715 724 722 712 700 691 684 680 680 679 677 675 676 688 690 693 696 700 705 711 717 722 727 733 737 740 742 742 742 743 744 745 745 745 745 746 747 748 748 750 751 753 753 753
708 710 721 725 731 732 717 716 705 693 685 679 675 674 670 666 667 675 683 688 692 695 699 705 710 716 723 728 732 734 734 735 737 740 741 742 743 742 742 743 744 745 746 747 747 748 748 750 750
696 701 715 719 725 724 722 721 700 686 686 678 670 664 660 659 667 674 680 686 691 695 699 705 711 718 723 728 731 733 735 736 737 738 739 740 739 739 740 741 742 743 743 744 745 745 747 748 749
693 705 713 712 717 724 715 716 704 684 674 666 659 653 650 663 670 674 680 686 690 695 701 707 713 719 724 728 731 733 735 736 736 736 736 736 736 738 738 739 741 741 741 742 744 745 746 747 748
691 708 720 727 721 715 695 702 684 663 655 656 654 650 655 665 669 675 680 683 690 695 701 708 714 720 725 729 732 733 735 736 736 735 734 735 735 736 737 738 739 740 740 742 743 745 746 748 748
680 684 684 712 704 694 681 696 672 650 645 644 644 646 653 662 667 672 676 683 689 696 702 708 714 720 724 728 731 733 734 733 733 734 733 733 734 735 737 738 739 738 740 741 743 744 746 747 748
670 674 660 673 675 682 668 672 654 644 644 639 639 643 650 659 666 671 676 683 689 696 703 708 714 719 724 727 730 731 732 733 733 733 734 733 734 735 738 738 738 739 740 741 743 744 745 746 747
651 658 679 671 696 701 669 671 664 644 640 635 636 640 647 659 665 670 677 684 690 697 704 709 715 719 723 726 728 729 731 731 732 733 733 733 735 737 738 739 738 740 741 742 743 743 744 746 747
647 656 657 658 662 680 683 668 643 643 631 633 630 633 648 658 663 669 676 684 690 697 703 710 715 719 723 725 727 728 730 731 731 732 733 733 735 737 739 739 740 741 742 743 743 744 744 746 748
635 643 653 662 677 664 660 661 631 631 626 626 631 639 646 653 660 667 675 683 689 696 703 710 714 717 721 723 725 727 729 730 731 731 732 734 735 737 738 740 741 742 743 744 744 745 746 748 750